ECMWFNIL_250_spd_063.txt.gz
Wind_Speed
103 103 102 101 100 98 96 94 92 90 87 83 79 78 75 70 64 60 57 54 52 50 48 48 48 48 47 46 46 45 43 44 45 47 50 54 58 63 68 73 77 82
105 105 104 103 102 100 98 96 94 92 88 84 79 77 75 71 65 60 57 54 52 50 48 47 47 47 47 46 46 46 44 43 44 45 48 51 55 60 65 70 75 79
107 106 105 105 104 102 100 98 96 93 90 85 80 76 74 71 66 61 57 55 53 50 47 46 46 47 47 46 46 46 45 44 43 44 46 49 53 57 62 67 72 76
109 108 107 106 106 104 101 100 97 95 91 87 81 75 73 71 66 61 57 55 53 50 47 46 45 46 46 46 45 46 46 45 44 43 44 46 50 54 58 63 69 73
111 110 109 108 107 105 103 100 98 95 91 87 82 75 72 71 67 61 57 54 52 50 47 45 45 45 45 45 45 45 46 46 45 44 44 45 48 51 55 60 65 70
113 112 111 109 108 106 103 101 98 95 91 87 82 76 71 70 67 62 57 54 52 50 47 45 44 44 44 45 44 43 45 46 46 45 44 44 46 49 53 57 61 66
115 114 112 111 109 107 104 101 98 95 91 86 81 76 71 70 68 62 57 54 52 50 48 45 44 44 44 44 44 43 43 45 46 45 44 44 45 47 50 54 58 62
116 115 113 111 110 108 104 101 98 94 90 85 81 75 71 69 68 63 57 55 52 49 48 45 44 43 43 44 43 42 42 43 45 46 44 44 45 46 48 52 55 58
118 116 113 112 110 108 104 101 97 93 88 84 79 75 71 68 68 64 58 55 52 49 47 45 44 43 43 43 43 42 41 41 44 46 44 43 44 45 47 50 53 56
119 116 113 111 109 107 103 99 95 91 86 82 77 74 70 68 68 65 59 55 52 50 47 45 44 43 43 43 43 42 41 40 41 45 45 43 43 45 46 48 51 54
119 116 112 110 107 105 101 97 93 88 84 80 76 72 70 67 67 66 60 55 53 50 48 46 43 43 43 43 43 43 42 40 40 43 45 43 42 44 45 46 48 52
118 114 111 108 105 102 99 94 90 86 82 78 74 71 69 67 67 66 60 55 53 50 48 46 44 43 43 43 43 43 42 40 39 41 44 43 42 42 44 46 46 49
116 112 108 105 102 99 96 91 87 83 80 77 73 70 68 66 67 66 61 55 53 51 48 46 44 43 43 43 43 42 41 40 38 40 42 43 42 42 43 45 46 47
114 109 104 100 98 95 93 88 84 81 78 76 72 69 67 66 66 66 61 55 54 52 49 47 44 43 42 43 43 43 41 39 38 40 41 42 42 42 41 43 45 45
109 104 100 97 94 92 90 85 81 79 77 74 71 68 66 65 66 66 61 55 54 52 49 47 44 42 42 43 44 43 41 39 38 39 40 40 41 42 41 42 43 44
103 99 96 94 92 90 87 83 79 77 75 72 70 67 65 65 66 66 61 55 53 52 49 47 44 42 42 43 44 44 41 39 38 38 39 40 40 41 42 41 42 43
98 95 93 92 90 87 84 80 77 75 73 70 68 66 64 64 65 65 60 55 53 52 49 47 44 41 42 43 45 44 41 39 38 38 38 38 39 40 41 42 41 41
95 92 90 89 87 85 82 77 75 73 70 68 66 64 63 63 64 64 59 54 53 51 49 47 43 41 41 43 44 43 41 40 39 38 37 37 38 39 40 42 41 40
92 90 88 86 84 82 78 74 72 69 67 65 64 62 61 61 63 63 58 54 53 51 49 46 43 40 41 43 44 42 41 40 39 38 36 37 38 38 40 41 41 40
89 86 84 82 80 78 74 71 68 66 63 62 61 60 59 60 61 60 56 53 52 51 49 46 42 40 41 43 43 42 40 40 40 38 36 36 37 38 39 40 40 40
85 82 80 78 76 74 71 67 65 63 61 59 58 57 57 58 59 58 54 52 51 50 48 46 42 39 40 42 42 41 40 40 41 38 36 36 36 37 38 39 39 40
82 79 77 75 73 70 67 64 61 60 58 57 56 55 56 57 57 55 52 51 50 49 47 46 42 39 40 41 41 40 39 40 40 39 37 35 35 36 37 38 38 39
79 77 75 73 70 67 64 61 59 58 56 55 54 54 54 55 55 53 51 50 49 47 46 45 42 39 40 41 40 39 39 40 40 39 37 36 34 35 36 37 37 38
77 74 73 71 68 64 61 59 57 56 54 53 53 53 53 53 52 51 50 49 47 46 46 44 41 39 40 41 39 38 38 39 39 39 37 36 34 35 36 36 36 37
74 72 70 68 65 62 59 57 56 55 53 52 52 52 52 51 50 49 48 47 46 45 45 43 40 39 40 40 38 37 38 39 39 38 37 35 34 35 35 35 36 37
71 69 68 65 63 60 58 56 56 53 51 51 51 50 50 50 48 48 47 46 45 45 44 42 40 39 39 39 38 37 38 39 38 37 36 35 34 34 34 35 36 36

ECMWFNIL_250_spd_066.txt.gz
Wind_Speed
113 114 114 114 114 113 113 113 113 113 111 109 107 103 99 96 92 88 85 82 79 76 72 68 65 65 66 65 62 59 58 57 56 56 55 54 54 55 57 59 61 63
116 116 116 116 116 116 115 114 114 114 112 109 106 103 99 95 92 88 85 82 79 76 72 67 64 63 65 66 62 59 57 56 56 56 55 55 54 54 55 58 59 62
118 118 118 118 118 117 117 116 115 114 111 108 105 101 97 94 91 88 84 82 78 75 71 66 63 62 64 66 63 59 57 56 55 56 56 55 54 53 54 56 58 60
119 119 120 120 120 119 118 117 115 113 110 106 103 99 96 93 90 87 84 81 77 74 69 65 63 62 63 65 63 59 57 56 55 55 56 55 54 53 53 55 57 59
122 121 121 121 121 120 118 117 114 111 107 104 100 98 95 92 89 85 82 79 76 72 68 64 62 61 62 65 64 59 57 56 55 55 56 55 54 53 52 54 55 57
124 124 123 123 122 120 118 116 113 109 105 101 98 96 93 90 87 83 80 77 74 71 67 64 62 61 61 64 64 59 57 56 55 55 55 55 55 53 53 53 54 56
126 125 125 123 121 119 116 113 110 106 102 98 96 93 91 88 84 80 77 75 72 69 67 64 63 61 61 64 64 58 56 56 55 55 55 55 55 54 53 53 54 54
127 126 124 122 119 116 113 110 106 103 99 95 93 91 87 84 81 78 76 74 71 68 66 64 63 62 61 64 64 58 55 56 55 55 55 55 55 54 53 53 54 54
127 125 122 119 116 112 109 106 102 99 95 92 90 88 85 82 80 77 75 73 70 68 66 64 63 62 61 64 64 58 55 56 55 55 56 55 55 54 53 53 54 54
126 123 120 117 114 110 106 103 99 96 92 90 88 86 84 81 79 77 74 72 70 68 66 64 62 61 61 64 63 57 55 55 54 55 56 55 55 54 53 53 55 54
121 119 117 114 110 107 103 100 96 93 90 88 87 85 83 81 79 76 73 71 70 68 66 63 61 60 61 64 61 56 54 55 54 55 56 55 54 54 53 53 55 54
115 112 110 108 106 103 101 98 95 92 89 88 86 84 82 80 78 75 72 70 69 67 65 62 60 59 61 63 60 54 53 54 54 55 56 55 54 53 52 53 55 55
110 107 106 105 104 102 99 97 94 90 88 86 85 84 82 79 76 74 71 70 68 66 64 61 59 59 60 61 57 53 53 54 54 54 56 55 54 53 52 53 55 55
105 103 102 101 100 99 96 94 91 88 84 82 81 81 80 77 74 71 70 69 67 65 62 60 59 58 59 59 55 51 52 53 53 54 55 55 53 52 52 53 54 55
99 98 97 96 95 94 93 91 88 85 82 79 77 77 76 73 70 68 68 67 65 63 61 59 58 58 58 56 53 50 51 53 53 54 55 54 53 52 52 52 53 54
94 94 93 92 90 89 87 86 84 81 78 76 74 73 72 69 66 65 66 66 63 61 59 58 57 57 56 54 51 49 50 52 53 54 54 53 52 52 51 52 52 53
89 89 90 89 88 85 83 82 79 77 75 73 71 70 68 66 62 62 63 63 61 60 58 57 57 56 55 52 49 48 50 52 53 54 54 52 52 51 51 51 51 52
85 84 85 85 84 83 81 79 76 74 71 69 68 66 65 62 59 59 61 61 59 58 57 56 56 55 53 50 47 47 50 52 53 53 53 52 51 51 50 50 50 52
82 80 79 79 79 78 77 75 73 71 69 67 65 63 61 59 57 57 58 58 57 56 55 55 55 54 52 49 46 47 49 51 52 52 51 51 51 51 49 49 50 51
78 76 75 74 74 73 71 70 69 67 66 64 62 60 58 56 55 55 56 56 55 55 55 55 54 52 50 48 46 47 49 50 51 51 50 51 51 50 48 48 49 51
74 73 72 71 70 70 68 66 65 63 61 60 59 57 55 54 53 54 54 53 54 54 54 54 53 51 49 46 45 47 48 49 50 50 50 50 50 49 48 47 49 51
72 71 69 67 66 67 66 63 61 60 57 56 55 54 52 52 52 52 51 51 52 53 53 53 52 50 48 45 45 47 47 48 49 49 49 49 49 48 47 47 48 50
70 68 67 65 63 63 63 61 59 57 55 53 52 51 50 50 51 51 50 50 51 51 51 51 51 49 47 45 45 46 46 47 48 48 48 48 47 47 47 47 48 49
68 66 64 62 61 60 60 58 56 55 53 51 50 49 48 49 49 49 49 49 49 49 50 50 50 48 46 45 45 46 45 46 47 47 48 47 47 46 46 46 47 48
67 64 62 61 59 58 57 55 53 52 51 49 48 48 47 48 48 48 48 48 48 48 49 49 48 47 45 44 45 45 45 45 46 46 47 47 46 45 45 46 47 47
66 63 61 60 58 55 54 53 51 50 49 48 47 46 46 47 47 46 46 46 46 47 47 47 47 45 44 44 45 44 44 44 45 46 46 45 44 44 45 46 47 46

ECMWFNIL_250_spd_069.txt.gz
Wind_Speed
117 119 120 122 123 124 125 125 125 124 123 122 121 120 119 117 115 114 112 110 108 106 105 103 102 100 98 96 93 90 88 85 82 79 76 74 72 72 74 75 73 68
122 123 125 126 127 127 127 126 125 125 123 121 120 118 117 115 113 112 110 107 105 103 102 100 99 98 97 95 92 88 86 83 80 78 75 72 71 71 72 74 71 67
127 128 128 128 129 129 128 127 125 123 121 119 117 116 114 112 111 109 107 105 102 100 99 97 96 95 94 92 89 86 83 81 78 75 73 70 69 69 71 72 70 66
131 131 131 130 129 128 127 126 124 121 118 116 115 113 112 110 108 107 105 102 99 96 95 94 93 92 90 88 86 83 81 79 76 73 70 68 68 68 70 71 69 65
134 134 133 132 130 128 126 124 122 120 118 115 113 111 109 107 106 104 102 99 96 92 90 90 90 88 86 84 83 81 79 77 75 72 69 67 67 68 69 70 68 64
135 135 134 132 130 128 125 123 121 119 117 114 112 109 106 104 101 99 97 94 91 88 86 87 87 85 82 81 80 79 77 75 73 71 68 67 67 67 68 69 67 63
133 132 130 128 126 124 122 120 118 116 114 112 109 106 104 101 98 95 93 90 88 84 83 84 85 83 80 78 77 77 76 75 72 70 68 67 66 66 67 68 65 62
128 125 123 122 121 119 117 115 113 111 109 107 105 103 101 99 97 94 91 89 86 82 80 81 82 81 78 76 75 75 74 74 72 69 68 67 66 65 67 68 64 61
123 121 118 116 115 113 111 109 107 105 103 102 101 100 99 98 96 94 91 88 85 82 80 79 79 77 76 75 74 73 73 72 71 69 67 66 65 65 66 67 64 60
120 117 113 110 107 105 103 102 101 100 100 100 100 100 99 97 95 92 90 87 84 82 80 79 77 74 74 74 73 72 71 71 70 68 66 65 64 64 65 66 63 60
115 112 108 103 99 98 98 97 96 97 98 98 99 100 99 97 94 91 88 85 83 80 79 78 76 72 72 72 72 71 70 69 69 67 65 64 63 63 65 64 62 60
112 109 106 102 99 98 99 98 95 95 96 96 96 97 98 95 92 89 86 83 80 77 76 76 74 71 70 70 70 70 69 69 67 65 64 63 62 63 64 63 60 59
110 107 105 103 101 99 99 98 95 93 93 94 94 94 94 92 89 86 83 81 77 75 73 73 72 70 68 68 68 68 68 67 66 64 63 62 62 62 62 61 59 59
106 104 102 100 98 95 93 93 92 90 90 90 90 90 89 88 85 82 80 78 75 73 71 70 70 68 67 66 67 67 67 66 65 63 62 62 62 62 60 59 59 59
102 100 97 95 93 90 88 86 86 86 85 85 85 85 84 84 81 78 76 75 73 71 69 68 67 66 65 64 64 65 65 65 63 63 63 62 61 61 60 58 58 58
98 96 93 90 88 86 84 82 81 81 80 80 80 79 80 80 78 75 73 72 70 68 67 66 65 64 63 62 63 64 64 63 62 63 63 62 61 60 59 57 57 57
94 92 89 87 84 81 80 79 78 77 76 75 74 74 75 75 75 72 70 68 67 65 64 64 64 62 61 60 61 62 62 61 62 63 62 61 61 60 58 56 56 57
92 89 87 84 81 78 76 75 75 74 73 71 70 70 70 71 71 69 67 65 63 62 61 62 62 60 59 59 60 60 59 59 61 62 61 60 60 60 58 56 55 56
89 87 84 81 78 76 74 72 71 71 70 68 66 66 67 67 66 65 64 62 60 59 59 59 60 59 58 58 59 57 57 59 61 61 60 60 60 59 57 55 55 56
86 83 80 77 75 73 71 70 69 68 67 65 64 64 64 63 63 62 62 60 58 57 56 57 58 58 58 58 57 56 56 58 60 61 60 59 59 58 56 55 55 55
83 79 77 74 72 71 70 68 67 66 65 62 61 62 61 60 60 60 59 58 57 55 54 55 57 58 57 57 55 54 55 56 58 60 60 58 58 57 55 55 55 54
80 76 74 72 70 69 68 67 65 64 63 60 59 59 58 57 57 57 57 56 55 54 53 54 56 56 55 54 54 53 54 55 58 60 59 57 55 55 54 54 54 54
77 73 70 69 68 66 65 65 64 62 61 59 58 57 56 55 54 55 54 54 53 52 52 53 55 54 52 52 52 52 53 55 57 59 58 56 54 53 54 55 55 54
75 72 69 66 65 64 63 62 62 60 58 58 57 55 54 53 52 53 52 52 51 51 50 51 52 51 50 50 50 51 52 54 56 57 57 55 53 52 53 55 55 53
72 69 67 65 63 62 61 60 59 58 57 57 56 54 53 51 51 51 50 50 50 49 49 49 49 48 48 48 49 50 52 54 55 56 55 54 52 51 52 54 54 53
71 68 65 64 62 61 60 58 57 56 56 55 54 53 52 50 49 49 49 49 48 48 47 48 47 47 46 46 48 50 52 53 54 54 54 52 51 51 52 52 52 53

ECMWFNIL_250_spd_075.txt.gz
Wind_Speed
117 118 119 120 122 123 124 125 125 125 124 124 122 121 119 119 118 117 115 114 112 110 108 109 109 109 109 110 111 112 112 113 113 114 115 115 115 115 114 113 113 112
121 122 123 124 125 126 126 126 125 123 121 119 118 116 115 113 113 112 112 112 111 110 108 107 107 108 108 108 109 110 111 111 112 114 114 113 113 113 112 111 110 110
125 127 127 127 127 126 125 123 121 119 117 115 114 113 112 111 110 110 110 110 111 110 109 107 105 105 105 106 107 107 108 108 110 112 112 111 110 110 109 108 107 107
129 129 128 126 124 121 119 118 116 115 113 112 111 110 109 108 107 107 106 106 107 107 107 106 104 103 102 103 104 105 105 105 106 108 109 108 107 106 105 104 104 103
128 127 124 121 119 117 115 114 113 112 110 109 107 106 106 105 103 103 102 102 102 103 104 104 103 101 100 100 102 102 102 103 103 105 105 105 104 102 100 99 99 99
124 122 120 118 116 115 114 113 111 110 109 107 105 104 103 102 101 99 98 98 97 98 99 101 101 100 99 98 98 100 101 101 101 102 102 102 101 99 97 96 95 95
120 119 118 117 116 115 114 112 111 110 109 107 105 103 101 99 97 95 94 93 92 93 95 98 99 99 97 95 94 96 98 99 99 98 98 98 98 97 96 95 93 92
119 118 118 117 116 115 114 113 112 110 108 105 102 100 97 95 93 92 90 89 89 91 93 96 98 98 96 93 91 92 95 96 96 95 94 94 94 94 94 93 91 90
119 118 117 117 116 115 114 112 110 107 105 102 99 97 96 94 92 90 89 88 88 89 91 93 95 96 94 91 88 89 91 92 92 92 90 90 90 91 90 89 88 87
119 118 117 116 115 113 112 109 107 104 102 100 99 97 96 94 92 90 88 87 86 87 88 91 93 93 92 89 86 87 88 89 88 88 87 87 87 87 86 85 84 83
118 117 116 114 112 110 109 106 104 102 101 100 99 97 96 94 92 90 88 85 84 85 86 89 90 90 89 86 84 85 86 86 85 85 84 84 83 82 81 80 79 79
117 115 113 111 109 107 106 104 103 102 101 100 99 97 95 93 92 91 89 87 84 83 85 87 88 87 85 83 82 83 84 83 82 82 81 80 79 78 77 76 75 76
114 112 110 108 107 105 104 103 103 102 102 101 99 97 94 92 90 89 88 87 85 84 84 86 86 84 83 81 80 81 82 81 80 79 77 76 75 74 73 72 72 73
111 109 107 106 106 105 104 103 102 101 101 99 98 96 94 92 89 87 85 83 83 83 83 84 83 82 80 79 78 78 78 78 77 75 74 73 72 71 70 70 69 70
108 107 107 106 106 105 104 102 101 100 98 97 95 93 91 90 89 88 85 81 79 79 81 81 80 79 78 77 75 75 75 75 73 71 70 70 69 68 67 67 67 67
108 107 107 107 106 105 103 102 100 98 96 94 92 90 89 88 87 85 84 81 77 75 76 78 77 76 76 75 73 71 71 70 69 67 67 67 66 66 66 65 65 66
108 108 108 107 106 105 103 101 99 96 94 91 89 88 86 85 84 81 79 78 75 71 71 73 75 74 73 73 70 67 66 66 65 64 64 64 63 64 64 64 64 64
108 107 107 106 105 103 101 99 96 93 91 89 87 85 83 82 80 78 75 75 73 69 67 69 72 72 71 70 67 64 62 62 61 62 62 62 62 62 62 62 62 63
108 107 106 105 103 101 98 95 93 91 89 86 83 81 80 79 77 75 73 72 70 66 64 65 68 70 69 67 64 61 60 58 58 60 61 60 61 61 60 60 61 61
107 105 104 102 100 98 95 93 91 89 86 83 79 78 76 75 75 72 70 69 67 63 62 63 65 67 66 63 60 58 58 56 55 57 60 60 60 59 58 58 59 59
104 103 101 99 97 95 93 91 88 85 82 79 76 75 74 73 72 70 68 66 64 61 60 61 63 64 62 60 58 56 56 55 53 56 60 60 58 56 55 56 57 57
102 99 97 95 93 92 90 87 85 82 79 76 74 73 72 71 69 67 65 64 61 59 58 59 60 60 59 57 56 54 53 53 53 55 59 59 56 54 54 55 55 56
99 96 94 92 90 88 86 84 82 79 77 74 71 70 70 69 67 65 62 60 59 57 56 57 57 56 55 55 54 52 51 51 52 54 57 57 55 52 53 54 54 54
97 95 93 90 88 85 83 81 78 76 74 72 69 67 68 67 65 63 60 58 57 55 54 55 55 53 52 53 52 50 50 50 51 53 55 56 54 52 51 52 52 52
96 93 91 88 85 83 80 78 75 73 71 70 68 66 65 65 63 60 58 56 55 53 52 52 52 51 50 51 50 49 49 49 50 52 54 54 54 52 49 49 50 51
93 91 88 86 83 80 78 76 73 70 68 67 67 65 63 62 60 58 56 55 53 51 51 50 50 49 48 48 48 48 47 48 49 51 52 53 52 50 47 46 50 51